This is the latest recevied weather packets stored in our database for station/object YD2CLX-13. If no packets are shown the sender has not sent any weather packets the latest 10 day(s).
| Time | Temp. | Humidity | Pressure | Rain* | Wind** | Luminosity | Snow |
|---|---|---|---|---|---|---|---|
| 1778129873 | 15.56° C | 56% | 797.3 hPa | 0 mm | - | - | - |
| 1778129264 | 14.44° C | 61% | 797.5 hPa | 0 mm | - | - | - |
| 1778128654 | 17.22° C | 61% | 797.4 hPa | 0 mm | - | - | - |
| 1778128046 | 16.67° C | 59% | 797.5 hPa | 0 mm | - | - | - |
| 1778127436 | 15.56° C | 61% | 797.7 hPa | 0 mm | - | - | - |
| 1778126827 | 17.22° C | 61% | 797.7 hPa | 0 mm | - | - | - |
| 1778125609 | 15.56° C | 63% | 798 hPa | 0 mm | - | - | - |
| 1778125001 | 15.56° C | 62% | 797.8 hPa | 0 mm | - | - | - |
| 1778124393 | 15.56° C | 61% | 798 hPa | 0 mm | - | - | - |
| 1778123782 | 15.56° C | 61% | 798 hPa | 0 mm | - | - | - |
| 1778123173 | 16.11° C | 61% | 798 hPa | 0 mm | - | - | - |
| 1778122561 | 15.56° C | 62% | 798 hPa | 0 mm | - | - | - |
| 1778121953 | 15.56° C | 61% | 798.1 hPa | 0 mm | - | - | - |
| 1778121342 | 15.56° C | 60% | 798.1 hPa | 0 mm | - | - | - |
| 1778120735 | 13.33° C | 58% | 798.1 hPa | 0 mm | - | - | - |
| 1778120125 | 13.33° C | 58% | 798 hPa | 0 mm | - | - | - |
| 1778119509 | 13.89° C | 59% | 798 hPa | 0 mm | - | - | - |
| 1778118277 | 13.33° C | 62% | 798 hPa | 0 mm | - | - | - |
| 1778117659 | 13.33° C | 63% | 798.1 hPa | 0 mm | - | - | - |
| 1778117044 | 12.22° C | 63% | 798 hPa | 0 mm | - | - | - |
| 1778116429 | 12.78° C | 63% | 797.9 hPa | 0 mm | - | - | - |
| 1778115813 | 12.78° C | 64% | 797.8 hPa | 0 mm | - | - | - |
| 1778115198 | 14.44° C | 64% | 797.7 hPa | 0 mm | - | - | - |
| 1778114583 | 14.44° C | 64% | 797.7 hPa | 0 mm | - | - | - |
| 1778113968 | 15° C | 64% | 797.6 hPa | 0 mm | - | - | - |
* Rain latest hour (hover to see other rain measurements)
** Current wind speed in m/s (hover to see current wind gust speed)